Printer-friendly version

IAU Minor Planet Center

Minor Planet Center

MPEC 2006-O42 : 2006 OD7

The following Minor Planet Electronic Circular may be linked-to from your own Web pages, but must not otherwise be redistributed electronically.


Read MPEC 2006-O41 Read MPEC 2006-O43


M.P.E.C. 2006-O42                                Issued 2006 July 25, 10:07 UT

     The Minor Planet Electronic Circulars contain information on unusual
         minor planets and routine data on comets.  They are published
   on behalf of Commission 20 of the International Astronomical Union by the
          Minor Planet Center, Smithsonian Astrophysical Observatory,
                          Cambridge, MA 02138, U.S.A.

                  Supported in part by the Brinson Foundation
                  Supported in part by the TABASGO Foundation
             Prepared using the Tamkin Foundation Computer Network

                              MPC@CFA.HARVARD.EDU
          URL http://cfa-www.harvard.edu/iau/mpc.html  ISSN 1523-6714

                                   2006 OD7

Observations:
     K06O07D* C2006 07 24.27076 19 12 50.66 +15 26 08.0          17.2   EO042704
     K06O07D  C2006 07 24.28131 19 12 49.69 +15 24 14.5          17.4   EO042704
     K06O07D  C2006 07 24.29183 19 12 48.60 +15 22 21.6          17.3   EO042704
     K06O07D  C2006 07 24.30255 19 12 47.44 +15 20 26.9          17.0   EO042704
     K06O07D  C2006 07 24.31309 19 12 46.45 +15 18 33.1          17.1   EO042704
     K06O07D  C2006 07 24.97929 19 11 54.27 +13 15 49.1                 EO042J95
     K06O07D  C2006 07 24.98005 19 11 54.19 +13 15 40.7                 EO042J95
     K06O07D  C2006 07 24.98148 19 11 54.06 +13 15 24.3          16.9 R EO042J95
     K06O07D  C2006 07 24.99232 19 11 53.04 +13 13 21.8          16.6 V EO042J77
     K06O07D  C2006 07 25.00107 19 11 52.19 +13 11 42.5          16.4 V EO042J77
     K06O07D  C2006 07 25.00358 19 11 51.95 +13 11 13.9          16.6 V EO042J77
     K06O07D  C2006 07 25.01485 19 11 50.86 +13 09 05.9          16.5 V EO042J77
     K06O07D  C2006 07 25.02492 19 11 49.88 +13 07 11.3          16.4 V EO042J77
     K06O07D  C2006 07 25.02744 19 11 49.63 +13 06 42.5          16.3 V EO042J77
     K06O07D  C2006 07 25.03564 19 11 48.85 +13 05 09.4          16.4 V EO042J77
     K06O07D  C2006 07 25.03989 19 11 47.85 +13 04 23.0          16.6 V EO042151
     K06O07D  C2006 07 25.04031 19 11 47.81 +13 04 18.2          16.7 V EO042151
     K06O07D  C2006 07 25.04040 19 11 47.52 +13 04 15.5          16.6 R EO042118
     K06O07D  C2006 07 25.04072 19 11 47.78 +13 04 13.6          16.6 V EO042151
     K06O07D  C2006 07 25.04095 19 11 47.47 +13 04 09.4          16.5 R EO042118
     K06O07D  C2006 07 25.04157 19 11 47.71 +13 04 03.8          16.7 V EO042151
     K06O07D  C2006 07 25.04475 19 11 47.12 +13 03 26.0          16.6 R EO042118
     K06O07D  C2006 07 25.04529 19 11 47.07 +13 03 19.6          16.5 R EO042118
     K06O07D  C2006 07 25.04583 19 11 47.00 +13 03 13.7          16.8 R EO042118
     K06O07D  C2006 07 25.04880 19 11 47.59 +13 02 39.3          16.3 V EO042J77
     K06O07D  C2006 07 25.05299 19 11 49.38 +13 03 06.7          16.6 R EO042I77
     K06O07D  C2006 07 25.05613 19 11 49.08 +13 02 31.2          16.6 R EO042I77
     K06O07D  C2006 07 25.05931 19 11 48.69 +13 01 55.2          16.5 R EO042I77
     K06O07D  C2006 07 25.07304 19 11 45.30 +12 58 02.3          16.3 V EO042J77
     K06O07D  C2006 07 25.09784 19 11 42.99 +12 53 18.5          16.4 V EO042J77
     K06O07D  C2006 07 25.15275 19 11 40.84 +12 43 01.6          17.0 R EO042932
     K06O07D  C2006 07 25.15431 19 11 40.69 +12 42 43.7          16.9 R EO042932
     K06O07D  C2006 07 25.16210 19 11 39.90 +12 41 14.3          17.0 R EO042932
     K06O07D  C2006 07 25.16350 19 11 39.75 +12 40 58.4          17.0 R EO042932
     K06O07D  C2006 07 25.17184 19 11 38.92 +12 39 22.4          17.0 R EO042932
     K06O07D  C2006 07 25.23718 19 11 34.52 +12 26 59.1          15.3 V EO042G96
     K06O07D  C2006 07 25.24327 19 11 33.88 +12 25 48.7          15.4 V EO042G96
     K06O07D  C2006 07 25.24347919 11 32.33 +12 25 43.4          16.9 R EO042850
     K06O07D  C2006 07 25.24486 19 11 32.79 +12 25 23.8          16.7 R EO042734
     K06O07D  C2006 07 25.24532619 11 32.09 +12 25 22.3          16.8 R EO042850
     K06O07D  C2006 07 25.24724119 11 31.92 +12 24 59.5          17.3 R EO042850
     K06O07D  C2006 07 25.24920619 11 31.72 +12 24 37.1          16.7 R EO042850
     K06O07D  C2006 07 25.25330 19 11 31.93 +12 23 46.2          16.7 R EO042734
     K06O07D  C2006 07 25.25408719 11 31.23 +12 23 41.2          16.7 R EO042850
     K06O07D  C2006 07 25.25531 19 11 32.64 +12 23 29.6          15.1 V EO042G96
     K06O07D  C2006 07 25.25576119 11 31.16 +12 23 21.3          16.5 R EO042850
     K06O07D  C2006 07 25.26052119 11 30.62 +12 22 25.8          17.1 R EO042850
     K06O07D  C2006 07 25.26460519 11 30.13 +12 21 38.8          16.8 R EO042850

Observer details:
118 Modra.  Observer S. Gajdos.  0.6-m f/5.5 reflector + CCD.
151 Eschenberg Observatory, Winterthur.  Observer M. Griesser.  0.40-m f/5.9
    Hypergraph + CCD.
704 Lincoln Laboratory ETS, New Mexico.  Observers M. Bezpalko, L. Manguso,
    D. Torres, R. Kracke, H. Love, G. Spitz, J. Kistler.  Measurers J. Stuart,
    J. Kommers.  1.0-m f/2.15 reflector + CCD.
734 Farpoint Observatory.  Observer D. Tibbets.  Measurer G. Hug.  0.7-m
    reflector + CCD.
850 Cordell-Lorenz Observatory, Sewanee.  Observers D. T. Durig,
    J. C. Cockhren.  0.30-m f/9.7 Schmidt-Cassegrain + 1Kx1K CCD.
932 John J. McCarthy Obs., New Milford.  Observers M. Robson, J. Reynolds.
    Measurer M. Robson.  0.4-m f/6.5 Schmidt-Cassegrain + CCD.
G96 Mt. Lemmon Survey.  Observer A. R. Gibbs.  Measurers E. C. Beshore,
    E. J. Christensen, G. J. Garradd, A. R. Gibbs, A. D. Grauer, R. E. Hill,
    R. A. Kowalski, S. M. Larson, R. H. McNaught.  1.5-m reflector + CCD.
I77 CEAMIG-REA Observatory, Belo Horizonte.  Observers C. Jacques, E. Pimentel.
    Measurer C. Jacques.  0.30-m f/3.0 Schmidt-Cassegrain + CCD.
J77 Golden Hill Observatory, Stourton Caundle.  Observer R. Miles.  0.28-m
    f/10 Schmidt-Cassegrain + CCD.
J95 Great Shefford.  Observer P. Birtwhistle.  0.40-m f/6.0 Schmidt-Cassegrain
    + CCD.

Orbital elements:
2006 OD7                                                 Earth MOID = 0.1050 AU
Epoch 2006 Sept. 22.0 TT = JDT 2454000.5                MPC
M  19.86204              (2000.0)            P               Q
n   0.63655931     Peri.  197.01163     +0.78439532     +0.47319478
a   1.3383719      Node   127.70773     -0.49358606     +0.86773063
e   0.1679170      Incl.   30.45611     -0.37562853     -0.15208633
P   1.55           H   19.5           G   0.15           U   8
Residuals in seconds of arc
060724 704  0.4-  0.2+    060725 151  0.3-  0.1-    060725 932  0.1+  0.2-
060724 704  1.1+  0.3-    060725 118  0.1-  0.0     060725 932  0.0   0.0
060724 704  0.7+  0.3-    060725 151  0.2-  0.0     060725 932  0.2+  0.2-
060724 704  0.4-  0.3+    060725 118  0.1-  0.2+    060725 G96  0.1+  0.1-
060724 704  0.7+  0.1-    060725 151  0.0   0.1-    060725 G96  0.0   0.3-
060724 J95  0.2-  0.1+    060725 118  0.1-  0.2+    060725 850  0.6+  0.1+
060724 J95  0.3-  0.3+    060725 118  0.1-  0.1-    060725 734  0.0   0.2-
060724 J95  0.2-  0.1+    060725 118  0.4-  0.2+    060725 850  0.2-  0.3+
060724 J77  0.2-  0.1-    060725 J77  0.1-  0.1-    060725 850  0.2+  0.3-
060725 J77  0.2-  0.1-    060725 I77  0.1-  0.1-    060725 850  0.2+  0.1+
060725 J77  0.2-  0.2-    060725 I77  0.4+  0.1+    060725 734  0.0   0.2-
060725 J77  0.1-  0.2-    060725 I77  0.4-  0.3+    060725 850  0.4+  0.7+
060725 J77  0.2-  0.2-    060725 J77  0.0   0.3-    060725 G96  0.1+  0.3-
060725 J77  0.3-  0.4-    060725 J77  0.0   0.1-    060725 850  1.8+  0.2+
060725 J77  0.1-  0.1-    060725 932  0.0   0.1-    060725 850  1.0+  0.1-
060725 151  0.3-  0.1-    060725 932  0.1+  0.1-    060725 850  0.1-  0.2+

Ephemeris:
2006 OD7                 a,e,i = 1.34, 0.17, 30                  q = 1.1136
Date    TT    R. A. (2000) Decl.     Delta      r     Elong.  Phase     V
2006 07 24    19 13.21   +16 14.4    0.142    1.130   141.0    34.5    17.0
2006 08 03    18 59.16   -22 57.8    0.117    1.121   153.1    24.2    16.2
2006 08 13    18 45.57   -57 40.5    0.157    1.115   127.3    46.3    17.5
2006 08 23    18 38.56   -73 48.7    0.227    1.114   111.1    57.9    18.6
2006 09 02    18 54.06   -81 17.2    0.304    1.116   102.7    61.9    19.4
2006 09 12    20 07.67   -84 54.5    0.379    1.123    97.7    62.7    19.9
2006 09 22    22 31.17   -85 32.1    0.449    1.133    94.7    62.1    20.2
2006 10 02    00 09.34   -83 47.6    0.512    1.146    92.8    60.7    20.5
2006 10 12    00 49.74   -80 58.2    0.566    1.163    91.8    59.1    20.7
2006 10 22    01 07.91   -77 28.8    0.612    1.182    91.5    57.3    20.9
2006 11 01    01 18.98   -73 20.9    0.651    1.203    91.7    55.6    21.0
2006 11 11    01 28.22   -68 33.2    0.682    1.226    92.4    53.8    21.1
2006 11 21    01 37.46   -63 03.8    0.709    1.250    93.4    52.1    21.2
2006 12 01    01 47.58   -56 52.5    0.734    1.275    94.5    50.4    21.2
2006 12 11    01 58.84   -50 03.7    0.760    1.300    95.5    48.9    21.3
2006 12 21    02 11.26   -42 44.5    0.789    1.326    96.2    47.5    21.4
2006 12 31    02 24.91   -35 06.4    0.826    1.351    96.2    46.4    21.5
2007 01 10    02 39.72   -27 24.5    0.871    1.375    95.5    45.4    21.6
2007 01 20    02 55.63   -19 53.0    0.927    1.399    94.0    44.6    21.8
2007 01 30    03 12.65   -12 44.8    0.994    1.421    91.8    43.9    21.9

Timothy B. Spahr             (C) Copyright 2006 MPC           M.P.E.C. 2006-O42

Read MPEC 2006-O41 Read MPEC 2006-O43


Our Web policy. Index to the CBAT/MPC/ICQ pages.


Valid HTML 4.01!